CAPE
3565 2992 2918 2373 1693 840 455 378 443 527 641 607 941 1122 692 840 963 1402 1558 1204 1366 1896 2078 2164 2342 2831 1762 1261 1271 1205 740 1258 2192 1406 1617 1843 3252 2425 2229 2175 1877 2142 1646
2546 2388 1811 966 395 166 260 292 323 290 229 177 397 777 740 865 1138 1026 917 651 748 1163 1112 1811 1590 1939 2355 2596 1932 2320 2791 2993 2623 2499 2237 1797 2719 3449 2710 2739 2660 1895 1514
1694 865 474 333 273 294 422 440 298 226 164 116 180 404 684 895 976 1025 1008 799 893 912 1372 1364 1290 1679 2134 2073 2353 1983 1787 2412 2573 2464 1649 2186 1918 1935 2643 2852 2941 2471 1778
447 353 499 483 473 567 587 493 374 335 285 277 365 560 821 915 925 923 1090 1194 953 910 1133 1125 1153 1300 1716 1928 2107 2264 2306 2260 2431 2562 2545 2569 1751 2092 2377 2215 1984 2239 2012
600 617 719 839 1057 976 862 721 578 533 418 502 643 730 897 897 743 831 740 680 688 523 965 926 1284 1282 966 1045 1767 1903 2194 2278 2303 2489 2192 2144 1677 1862 1962 2450 1944 1978 2068
801 822 894 1052 1237 1171 1020 823 676 618 652 780 813 1037 1026 910 489 43 56 320 462 669 721 844 1003 849 765 660 572 467 1034 1868 2183 2198 1902 2125 1932 1535 1711 1570 1882 1784 1533
723 825 955 1147 1235 1118 948 756 671 820 958 1019 1395 1172 1008 937 350 114 3 534 680 676 799 1115 927 785 653 841 763 300 314 311 202 1525 2050 1958 2363 2104 2299 1829 1871 2861 1882
476 522 616 821 896 920 808 725 806 772 963 1184 1160 1108 952 797 344 155 12 734 825 833 822 942 942 897 670 731 1060 1214 1115 1418 1238 775 1330 1931 2093 2599 2594 2746 2509 2992 3179
7 19 108 290 623 739 705 721 811 897 1054 1217 1042 917 876 919 549 242 43 693 720 679 593 459 218 248 472 138 352 793 1101 1076 867 543 644 779 1100 878 1108 1947 1459 1824 2517
283 318 410 526 612 590 606 857 796 872 1070 879 999 1080 778 916 602 159 0 627 313 75 24 179 0 0 0 0 85 357 449 807 1084 1524 1267 451 114 628 102 1217 973 2008 2437
313 416 489 498 564 610 847 804 958 891 748 909 839 1207 1172 948 1094 199 1 298 58 20 14 11 0 0 0 0 1 32 249 755 965 1568 1811 1594 1698 1482 1259 975 1119 1145 1333
138 201 283 369 508 642 927 841 836 921 807 843 1011 1400 1237 1476 450 106 18 0 1 0 14 36 21 0 0 0 0 0 1 0 133 841 1629 1302 1131 1104 1019 1105 1027 936 743
211 224 296 502 520 571 763 807 826 690 532 394 684 722 828 983 797 42 13 0 0 2 96 22 0 0 0 0 0 0 1 1 13 262 536 655 910 1094 1156 932 1243 1393 1089
13 239 270 239 274 767 897 848 467 53 28 121 366 630 835 362 172 163 226 198 53 17 34 5 0 0 0 0 0 2 3 4 6 111 273 563 752 872 679 591 763 947 1638
6 21 32 88 471 342 431 104 62 29 42 78 206 105 82 24 20 5 0 0 20 0 0 0 80 121 74 41 13 5 16 32 11 58 351 321 435 453 390 579 723 612 749
11 23 141 296 250 161 179 229 54 1 0 0 0 1 1 0 0 0 1 1 0 0 0 45 382 313 129 27 11 13 396 1 3 3 88 307 194 168 266 623 713 1051 615
11 8 20 99 647 399 253 420 600 178 6 0 0 0 2 1 0 1 1 0 0 0 0 194 473 364 96 51 21 19 25 75 2 6 8 212 704 1203 800 740 418 602 931
7 1 63 380 91 93 124 138 136 177 37 61 28 5 0 0 0 0 0 0 89 17 98 125 253 208 245 132 21 62 2 9 10 14 33 99 324 432 282 186 256 43 30
11 40 23 15 118 22 120 577 89 185 32 40 43 24 1 0 1 1 1 57 224 103 121 120 198 228 225 283 184 54 35 30 15 13 8 11 41 14 78 135 284 13 0
12 4 1 16 9 10 9 44 137 64 4 17 31 3 1 2 148 237 716 757 285 311 203 179 173 193 344 288 319 240 80 53 76 39 3 3 4 6 6 6 2 2 3
12 5 2 1 5 8 9 0 8 6 8 10 7 6 0 3 15 0 239 682 422 31 378 375 248 232 287 325 333 262 216 245 131 125 80 8 3 4 3 3 3 2 2
18 8 7 3 5 9 5 12 2 2 11 5 17 10 0 6 8 10 7 7 13 26 2 32 24 257 279 286 232 373 175 180 204 77 83 78 66 26 5 16 0 2 0
4 7 8 9 12 6 7 7 7 11 10 4 7 12 8 10 6 7 11 12 9 6 0 1 0 0 0 0 0 0 0 0 0 200 99 59 53 56 61 38 17 7 1
0 0 2 4 6 7 12 8 10 8 8 7 4 7 8 5 7 6 5 10 3 4 6 2 2 2 1 0 0 0 0 0 0 10 160 108 73 73 77 54 45 51 23
0 0 0 0 0 1 2 3 4 5 10 8 5 6 5 3 2 1 1 1 3 5 6 5 2 0 0 0 0 0 0 0 0 0 0 130 74 78 41 51 44 59 43
0 0 0 0 0 0 0 1 0 0 2 4 4 3 5 7 2 0 0 0 1 0 1 0 0 0 0 0 0 0 0 0 0 0 0 107 93 105 42 60 46 44 27
CIN
-19 -23 -22 -23 -41 -49 -59 -58 -60 -63 -50 -36 -11 -1 0 0 0 0 0 0 0 0 0 0 0 0 0 0 0 0 -1 0 0 -2 0 0 0 0 0 0 -2 -1 -18
-45 -52 -45 -63 -71 -100 -78 -83 -82 -82 -94 -114 -35 -3 -1 0 0 0 0 0 0 0 0 0 0 0 0 0 0 0 0 0 0 0 0 0 0 0 0 0 0 -2 -19
-68 -57 -58 -63 -57 -71 -66 -72 -74 -70 -80 -77 -45 -6 0 0 0 0 0 0 0 0 0 0 0 0 0 0 0 0 0 0 0 0 0 -2 0 0 0 0 0 -3 -16
-75 -73 -62 -55 -62 -58 -54 -60 -58 -55 -53 -45 -22 -2 0 0 0 0 0 0 -1 0 0 0 0 0 0 0 0 0 -5 0 0 0 0 0 -1 0 -4 0 0 -1 0
-82 -70 -61 -55 -39 -29 -30 -37 -49 -46 -39 -21 -5 0 0 0 0 0 0 0 0 0 0 0 0 0 -4 -5 0 0 0 0 0 0 0 0 0 0 0 -1 0 -1 0
-79 -72 -56 -28 -14 -16 -18 -26 -29 -28 -12 0 0 0 0 0 -3 -78 -58 -2 0 0 0 0 0 -4 -10 -34 -49 -65 -4 0 0 0 0 0 0 0 0 -2 0 0 0
-80 -51 -29 -12 -3 -2 -2 -8 -11 -2 0 0 0 0 0 0 -14 -79 -15 0 0 0 0 0 0 0 -13 0 -3 -107 -108 -100 -114 -1 0 0 0 0 0 0 0 0 0
-53 -38 -17 -2 0 0 0 0 0 -1 0 0 0 0 0 0 -21 -48 -69 0 0 0 0 0 0 0 0 -1 0 0 0 0 -9 -12 0 0 0 0 0 0 0 0 0
-26 -34 -59 -24 0 0 0 0 0 0 0 0 0 0 0 0 -7 -36 -61 0 0 0 0 0 -1 0 -1 -38 -3 0 0 0 -2 -17 -17 -16 -2 -10 -10 0 0 0 0
-37 -25 -12 0 0 0 0 0 0 0 0 0 0 0 -1 0 -9 -58 0 0 0 -1 0 0 0 0 0 0 -63 -1 0 0 0 0 -1 -61 -135 -20 -208 0 -1 0 0
-3 0 0 0 0 0 0 0 0 0 0 0 0 0 0 -3 -1 -23 -11 -2 -2 -4 -40 -85 0 0 0 0 0 -52 -29 -7 -1 0 0 0 0 0 0 -1 0 0 0
-5 -2 0 0 0 0 0 0 0 0 0 0 0 0 0 0 -10 -21 -72 -7 -24 0 -90 -104 -68 0 0 0 0 0 0 0 -79 0 0 0 0 0 0 0 0 -3 -5
0 -5 0 0 0 0 0 0 0 0 0 0 0 0 0 0 0 -57 -126 0 0 0 -31 -25 0 0 0 0 0 0 0 0 -106 -24 0 0 0 0 0 -4 0 0 -1
-7 -2 0 -3 -23 0 0 0 -1 -1 0 -6 0 0 0 0 -2 -18 -8 -9 -58 -85 -24 -22 0 0 0 0 0 0 0 0 -15 -70 -14 0 0 0 0 -1 0 -1 0
0 -44 -77 -67 0 -3 -1 -48 -1 -11 -1 0 0 0 0 -4 -51 -44 0 0 -48 0 0 0 -23 0 0 -1 -4 0 -47 -90 -90 -98 -2 -3 -6 -2 -3 0 0 0 0
0 -30 -51 -12 -8 -28 -39 -6 -13 -31 0 0 0 0 0 0 0 0 0 0 0 0 0 -9 0 0 -2 -2 0 -23 0 0 0 0 -50 0 -13 -25 -17 0 0 0 0
0 -1 -3 -51 0 0 -8 0 0 -7 -19 0 0 0 0 0 0 0 0 0 0 0 0 -1 0 0 0 -1 0 0 -3 -28 0 0 -1 -9 0 0 0 0 -1 0 0
0 0 -107 -23 -60 -82 -69 -6 0 0 -4 -2 -10 -36 0 0 0 0 0 0 -23 -1 -18 -1 0 0 0 0 -7 -3 0 0 -52 -62 -42 -26 -2 0 -8 -32 -14 -26 -27
0 -3 -6 -8 -78 -12 -45 0 -1 0 -5 -4 -7 -5 0 0 -55 0 0 -37 0 0 0 0 0 0 0 0 0 -17 -15 -7 0 -5 0 -15 -57 -39 -7 -19 0 -56 0
0 -1 0 -3 0 0 -4 -16 -3 -3 0 -38 -15 0 0 -20 -4 -2 0 0 0 0 -2 -5 0 0 -1 -5 -5 -5 -19 -24 -8 0 -6 0 0 0 0 0 0 0 0
0 0 0 0 0 0 0 0 0 0 0 0 0 0 0 -4 -82 0 -1 0 -1 -84 -4 0 -9 -1 0 0 -6 -2 -1 -17 -57 -51 -45 -22 -6 -1 0 0 0 0 0
0 0 0 0 0 0 0 0 0 0 0 0 0 0 -1 0 0 0 0 0 -29 -120 -76 -12 -20 -3 -1 -1 -8 -1 -11 -18 -5 0 0 -4 -25 -42 -6 -3 0 -3 0
0 0 0 0 0 0 0 0 0 0 0 -1 0 0 0 0 0 0 0 0 0 0 0 0 0 0 0 0 0 0 0 0 0 -26 -1 -1 0 0 0 0 -1 0 0
0 0 0 0 0 0 0 0 0 0 0 0 0 0 0 0 0 0 0 0 0 0 0 0 0 0 0 0 0 0 0 0 0 -3 -7 -3 0 -8 -2 0 0 0 0
0 0 0 0 0 0 0 0 0 0 0 0 0 0 0 0 0 0 0 0 0 0 0 0 0 0 0 0 0 0 0 0 0 0 0 -4 0 0 0 -2 -1 -1 -1
0 0 0 0 0 0 0 0 0 0 0 0 0 0 0 0 0 0 0 0 0 0 0 0 0 0 0 0 0 0 0 0 0 0 0 -1 -1 -4 0 0 0 0 0
Wind_Speed
8 7 5 4 3 3 5 7 9 10 11 13 14 14 16 16 15 13 14 16 17 16 16 16 18 17 14 13 12 13 14 12 13 13 13 13 8 11 12 11 12 11 10
6 5 4 2 3 4 6 8 9 11 13 14 15 16 16 16 15 16 17 16 18 18 17 16 20 14 17 15 14 15 12 13 13 18 13 13 10 11 12 12 10 10 11
5 4 4 5 5 5 8 9 11 12 13 15 15 16 17 16 16 16 16 17 17 18 17 17 18 18 17 14 15 13 13 11 13 13 15 11 13 11 12 13 10 12 11
3 4 6 7 7 8 9 10 11 13 14 16 16 16 16 16 17 17 16 16 16 17 17 17 18 18 19 18 16 16 14 13 13 12 13 11 11 11 10 13 10 12 11
5 7 8 8 9 10 11 11 12 14 14 16 16 17 16 15 13 14 14 14 15 17 17 17 18 19 21 18 13 15 15 13 12 12 13 10 11 10 11 10 10 11 11
7 9 10 11 12 12 13 13 13 14 15 15 17 16 15 12 10 7 11 15 16 17 17 18 18 20 19 20 23 22 20 15 15 12 13 14 13 10 9 8 10 11 11
9 11 12 13 13 14 14 14 14 15 14 15 14 14 16 15 11 11 11 13 14 15 17 16 17 16 16 19 19 22 24 26 25 19 17 17 15 16 14 12 11 12 12
11 12 13 14 15 14 14 15 14 13 14 14 15 16 15 14 12 13 13 14 14 15 16 15 17 17 16 20 20 20 21 19 19 17 21 20 18 13 13 13 13 13 10
14 15 15 15 15 15 15 15 14 14 14 13 14 16 16 16 14 12 11 14 14 15 16 16 16 18 20 16 17 20 21 19 17 19 18 16 15 13 13 8 11 11 10
14 14 15 15 15 16 16 14 13 14 13 12 15 15 17 17 16 13 11 11 12 12 14 14 10 14 19 18 17 17 17 21 19 17 16 18 16 15 15 16 11 11 12
13 14 15 15 16 16 14 13 11 12 12 13 15 14 17 17 14 11 9 10 10 11 11 10 9 15 18 19 20 16 18 16 17 15 12 11 12 15 13 15 15 14 11
13 14 15 16 14 13 14 10 13 13 12 13 13 13 11 12 9 10 8 9 7 10 9 9 10 18 18 18 15 18 17 16 12 12 11 10 11 12 13 13 14 15 13
14 14 15 15 14 12 10 12 12 11 11 14 13 10 9 9 9 6 15 10 11 10 10 13 20 23 25 23 24 20 14 8 10 9 10 10 11 12 12 9 12 16 18
13 15 14 14 14 13 9 9 9 9 11 14 14 11 9 9 9 4 6 10 9 10 9 12 17 21 25 20 11 9 9 10 9 9 9 9 9 9 9 9 9 8 10
13 12 11 11 14 13 12 10 10 9 9 11 13 8 7 8 7 8 9 10 11 11 13 11 8 6 8 10 6 8 8 8 9 9 10 9 9 9 9 9 11 12 11
13 12 12 12 11 10 11 13 7 13 17 16 12 8 5 12 18 16 13 12 12 9 6 8 9 5 8 9 9 8 7 8 7 7 9 9 8 8 9 11 13 11 11
12 13 12 12 10 12 11 9 12 8 11 11 11 10 12 14 16 13 13 12 21 7 8 7 6 7 5 8 12 9 7 4 7 7 8 9 11 9 7 8 8 10 11
13 14 12 11 11 11 11 11 8 7 8 6 7 8 10 13 15 13 9 11 9 5 7 9 8 8 6 5 8 11 13 10 4 2 2 1 3 5 5 7 7 5 9
12 10 10 11 8 10 12 9 6 7 7 7 6 6 10 12 16 8 7 6 8 7 8 9 10 9 8 6 5 7 8 9 11 7 6 4 3 4 1 4 5 4 1
10 15 14 10 8 9 10 12 9 6 6 7 7 8 9 7 10 10 7 8 10 10 11 10 8 8 7 7 4 4 5 7 8 9 10 9 7 7 7 7 7 7 4
8 8 12 8 9 10 9 7 9 5 8 7 7 8 16 7 11 11 11 9 9 10 11 10 11 12 9 9 10 8 7 4 3 6 6 6 9 9 8 9 10 9 7
7 8 8 7 8 8 9 9 10 11 8 9 8 10 13 10 9 10 8 10 10 7 9 12 10 10 11 11 12 12 12 12 10 11 8 7 8 9 10 8 7 7 6
8 10 9 8 9 9 8 9 10 10 8 8 11 9 10 9 9 10 10 10 10 11 11 12 12 12 13 13 13 13 12 12 13 11 9 9 10 7 7 9 9 8 7
8 7 6 6 8 10 10 9 9 9 9 10 11 11 10 10 10 11 10 10 10 10 10 10 11 15 14 13 13 13 12 12 10 12 15 9 7 6 8 7 7 7 9
9 8 8 9 8 8 8 8 8 10 9 8 9 10 10 11 12 11 11 11 10 11 11 11 11 15 16 20 20 23 20 16 14 16 10 8 6 4 6 5 4 4 6
9 9 8 7 7 5 6 6 4 5 6 7 7 8 9 9 9 9 11 13 11 9 12 11 13 16 19 17 22 20 19 19 18 19 12 9 7 7 8 6 7 6 5
Wind_Direction
186 183 186 182 208 277 309 317 306 306 304 299 295 286 280 279 276 272 271 275 270 266 258 255 254 252 257 259 249 249 249 256 262 259 262 265 253 250 255 255 256 255 266
164 174 186 230 274 306 312 303 306 305 303 299 294 288 282 275 271 273 275 279 279 276 271 260 259 252 253 251 259 256 258 256 257 258 260 265 249 246 247 256 265 261 262
171 199 237 270 291 301 294 297 299 302 301 298 293 285 280 278 279 278 275 274 273 272 272 270 262 261 256 253 253 260 252 247 252 262 260 248 254 248 242 233 239 256 254
235 258 276 285 289 283 286 289 299 301 299 299 296 288 280 277 276 277 276 276 278 276 276 275 272 264 261 259 253 251 255 254 246 250 257 259 251 266 268 263 253 242 243
290 290 289 289 281 277 283 293 297 300 300 298 294 287 282 278 274 283 291 289 285 283 279 272 267 264 261 262 259 255 250 248 244 245 250 243 240 240 238 245 245 261 255
303 297 295 282 274 277 285 291 296 296 297 295 290 290 293 287 282 285 280 283 284 282 278 273 271 266 256 237 247 249 249 253 248 242 248 245 239 229 224 226 246 245 245
299 291 287 282 280 282 287 291 293 297 299 296 292 285 282 281 273 260 255 278 278 281 284 282 283 279 275 269 260 234 237 238 236 249 249 245 244 232 232 216 231 247 246
302 295 291 288 286 290 290 293 300 304 299 293 290 284 285 282 263 264 258 275 270 272 279 285 282 274 268 272 275 268 261 253 237 231 238 247 243 242 229 227 223 240 250
314 312 310 305 298 297 296 300 302 293 289 276 281 283 283 283 275 261 266 278 271 279 278 275 283 289 279 254 261 263 258 261 252 234 238 251 226 211 232 238 233 230 233
332 320 311 306 301 297 297 297 295 294 292 288 284 284 283 279 275 271 258 262 275 282 287 287 263 279 283 271 260 256 253 253 257 253 230 235 235 224 215 229 234 238 231
321 316 311 305 299 293 294 288 292 290 284 285 282 283 280 275 280 284 229 257 277 295 294 282 276 275 270 266 257 254 248 260 263 258 251 241 235 226 226 221 222 223 230
321 314 310 307 308 301 304 297 288 290 295 292 292 291 285 281 284 290 275 245 294 273 275 277 277 264 271 271 268 254 248 251 251 258 251 238 230 231 228 225 222 222 230
322 321 318 314 311 307 294 293 291 303 311 308 302 295 288 295 296 281 269 263 231 245 274 293 298 289 279 276 256 248 249 244 236 233 238 234 229 239 240 234 228 221 218
323 318 316 318 313 314 308 300 303 304 301 304 295 304 294 296 306 294 325 316 289 284 292 307 298 289 279 276 289 247 229 224 223 227 232 228 221 222 218 219 219 230 223
317 305 302 309 311 309 306 313 310 296 287 294 293 297 304 289 289 302 280 300 296 310 321 290 276 280 306 316 260 234 227 218 218 224 222 216 213 217 222 225 230 237 224
320 321 325 311 308 311 307 310 252 239 270 286 291 238 269 263 291 314 312 281 277 278 267 274 301 325 332 330 331 320 242 213 222 223 225 209 203 209 220 221 234 236 239
316 314 312 314 317 304 320 318 314 314 253 269 276 270 233 250 288 292 295 305 279 227 253 310 342 339 346 342 351 344 315 227 212 215 207 208 208 219 217 237 242 249 243
318 303 312 317 315 324 316 318 307 328 336 321 311 315 310 303 295 294 295 289 290 149 322 9 355 356 12 347 360 2 10 353 331 194 134 162 193 212 203 216 210 237 246
316 312 325 313 335 333 310 320 326 340 351 331 328 337 345 305 283 274 261 283 311 20 12 22 23 24 15 12 13 6 9 346 2 24 46 48 62 65 14 248 240 203 127
327 350 341 341 353 338 341 343 347 14 351 340 353 8 335 340 360 348 358 356 347 354 10 359 34 41 42 20 24 48 27 356 15 35 32 30 40 50 47 40 63 54 45
341 344 347 353 355 353 348 340 347 26 355 347 5 10 341 360 10 352 2 1 18 2 346 0 7 7 28 27 4 11 62 107 250 85 94 85 59 48 45 52 56 56 55
353 356 353 357 359 351 345 14 6 358 14 355 10 4 9 24 15 359 3 3 359 9 2 5 12 12 15 24 8 354 20 3 10 27 54 98 128 117 103 90 74 66 55
12 4 5 5 355 9 11 13 18 10 1 10 15 14 12 12 18 13 12 12 10 19 9 17 18 18 10 8 11 8 8 353 337 348 4 50 25 46 75 102 114 118 116
8 356 15 27 17 13 15 10 6 9 15 15 15 7 7 12 12 17 19 17 20 29 21 29 29 27 21 19 13 9 11 353 325 338 338 356 30 15 17 44 75 110 99
5 360 5 7 24 21 17 15 14 1 7 16 8 11 12 5 3 11 16 9 12 16 32 28 21 21 23 23 17 10 355 350 346 328 328 343 16 339 22 65 44 71 32
360 1 1 12 17 319 358 16 31 17 13 4 6 8 7 2 359 3 3 7 4 17 12 17 11 22 18 17 7 360 354 355 353 341 328 323 359 11 13 20 34 5 40